Preview of NWS' New Version of Forecast
This preview is not operational and should not be used for support decisions.

Regional Weather Roundup (RWR)

Issued by National Weather Service (NWS)

                            
000
ASUS43 KLSX 241557
RWRMO 

WEATHER SUMMARY FOR MISSOURI
NATIONAL WEATHER SERVICE SPRINGFIELD MO
1100 AM CDT SUN MAR 24 2019

NOTE: "FAIR" INDICATES FEW OR NO CLOUDS BELOW 12,000 FEET WITH NO
       SIGNIFICANT WEATHER AND/OR OBSTRUCTIONS TO VISIBILITY.
       CURRENT SKY AND/OR WEATHER CONDITIONS ARE NOT AVAILABLE FOR
       CHILLICOTHE AND FARMINGTON.

MOZ001>031-035>038-043-044-053-054-241700-
...NORTHERN AND WESTERN MISSOURI...
  
CITY           SKY/WX    TMP DP  RH WIND       PRES   REMARKS
KANSAS CTY INT PTSUNNY   53  47  79 SW10      29.95R                  
KANSAS C DTWN  PTSUNNY   55  46  71 SW10      29.95S                  
LEE'S SUMMIT   CLOUDY    54  46  74 SW14      29.96S                  
ST JOSEPH        N/A    N/A N/A N/A MISG      29.95R                  
CHILLICOTHE      N/A     51  49  92 CALM      29.97F                  
KIRKSVILLE     CLOUDY    52  48  87 SE6       30.00S                  
     
$$
MOZ066>068-077>081-088>096-101>105-241700-
...SOUTHWEST MISSOURI...
  
CITY           SKY/WX    TMP DP  RH WIND       PRES   REMARKS
SPRINGFIELD    CLOUDY    59  53  80 S15       30.00F                  
JOPLIN         CLOUDY    61  56  83 SW10      29.99F                  
               
$$
MOZ032>034-039>042-045>050-055>058-069>072-241700-
...CENTRAL MISSOURI...  
  
CITY           SKY/WX    TMP DP  RH WIND       PRES   REMARKS
COLUMBIA       NOT AVBL                                               
JEFFERSON CITY CLOUDY    57  46  66 S6        30.01S                  
ROLLA          SUNNY     56  47  71 SW14      30.02S                  
SEDALIA        CLOUDY    56  50  80 SW15      29.99R                  
WARRENSBURG    CLOUDY    54  48  82 S12       29.97S                  
               
$$
MOZ051-052-059>065-241700-
...EAST CENTRAL MISSOURI...
  
CITY           SKY/WX    TMP DP  RH WIND       PRES   REMARKS
ST LOUIS INTL  PTSUNNY   53  46  77 SE9       30.05S                  
                   
$$
MOZ072>076-082>087-097>100-106>115-241700-
...SOUTH CENTRAL AND SOUTHEAST MISSOURI...
  
CITY           SKY/WX    TMP DP  RH WIND       PRES   REMARKS
CAPE GIRARDEAU CLOUDY    56  50  80 S10       30.10S                  
POPLAR BLUFF   PTSUNNY   59  53  80 SW16      30.09F                  
WEST PLAINS    MOSUNNY   60  52  74 SW13      30.06S                  
                                       
$$